Szombathely, Hungary

5:29 PM CEST on April 25, 2017 (GMT +0200)
Szombathely

Weather History for LHSY - January, 2014

Change the Weather History Date:

Sunday, January 12, 2014

  Actual Average Record
Temperature  
Mean Temperature 40 °F -  
Max Temperature 49 °F 37 °F - ()
Min Temperature 31 °F 25 °F - ()
Degree Days  
Heating Degree Days 25    
Moisture  
Dew Point 33 °F    
Average Humidity 73    
Maximum Humidity 99    
Minimum Humidity 40    
Precipitation  
Precipitation 0.00 in 0.04 in - ()
Sea Level Pressure  
Sea Level Pressure 30.21 in    
Wind  
Wind Speed 3 mph ()    
Max Wind Speed 4 mph    
Max Gust Speed -    
Visibility 10.6 miles    
Events Fog    
T = Trace of Precipitation, MM = Missing Value Source: Averaged Metar Reports

Daily Weather History Graph

Daily Weather History Graph

Search for Another Location

Airport or City:

Trip Planner

Search our weather history database for the weather conditions in past years. The results will help you decide how hot, cold, wet, or windy it might be!

Date:

Astronomy

Jan. 12, 2014 Rise Set
Actual Time 7:37 AM CET 4:26 PM CET
Civil Twilight 7:02 AM CET 5:00 PM CET
Nautical Twilight 6:24 AM CET 5:39 PM CET
Astronomical Twilight 5:47 AM CET 6:16 PM CET
Moon 1:42 PM CET (1/12) 4:18 AM CET (1/12)
Length of Visible Light 9h 58m
Length of Day
8h 48m
Waxing Gibbous, 88% of the Moon is Illuminated
Jan 12
Waxing Gibbous
Jan 16
Full
Jan 24
Last Quarter
Jan 30
New
Feb 6
First Quarter

Hourly Weather History & Observations

Time (CET) Temp. Dew Point Humidity Pressure Visibility Wind Dir Wind Speed Gust Speed Precip Events Conditions
12:00 AM 38 °F 37 °F 93% 30.10 in - SW 4.5 mph - -  
1:00 AM 38 °F 37 °F 94% 30.11 in - SSW 2.2 mph - -  
2:00 AM 37 °F 36 °F 96% 30.13 in - SSE 2.2 mph - -  
3:00 AM 36 °F 35 °F 96% 30.15 in - ENE 2.2 mph - -  
4:00 AM 34 °F 33 °F 97% 30.17 in - West 2.2 mph - -  
5:00 AM 33 °F 33 °F 97% 30.18 in 0 mi SW 2.2 mph - - Fog Partial Fog
6:00 AM 32 °F 31 °F 96% 30.20 in 0 mi SSE 2.2 mph - - Fog Partial Fog
7:00 AM 36 °F 36 °F 99% 30.21 in 12 mi NNE 4.5 mph - - Fog Light Fog
8:00 AM 33 °F 32 °F 93% 30.25 in 9 mi West 2.2 mph - -   Partly Cloudy
9:00 AM 34 °F 33 °F 95% 30.27 in - SW 2.2 mph - -  
10:00 AM 39 °F 35 °F 81% 30.27 in 16 mi SSW 2.2 mph - -   Partly Cloudy
11:00 AM 45 °F 36 °F 63% 30.26 in - South 2.2 mph - -  
12:00 PM 47 °F 36 °F 56% 30.24 in - WSW 4.5 mph - -  
1:00 PM 48 °F 32 °F 43% 30.24 in 16 mi NNE 4.5 mph - -   Partly Cloudy
2:00 PM 49 °F 32 °F 40% 30.22 in 14 mi NNE 2.2 mph - -   Partly Cloudy
3:00 PM 48 °F 33 °F 43% 30.22 in 16 mi East 4.5 mph - -   Partly Cloudy
4:00 PM 47 °F 30 °F 40% 30.22 in 22 mi ENE 2.2 mph - -   Partly Cloudy
5:00 PM 46 °F 29 °F 40% 30.23 in - NE 2.2 mph - -  
6:00 PM 42 °F 31 °F 53% 30.24 in - East 4.5 mph - -  
7:00 PM 42 °F 32 °F 56% 30.25 in 12 mi ESE 2.2 mph - -   Partly Cloudy
8:00 PM 41 °F 34 °F 69% 30.24 in - South 2.2 mph - -  
9:00 PM 41 °F 33 °F 64% 30.24 in - WSW 4.5 mph - -  
10:00 PM 39 °F 32 °F 67% 30.24 in - SW 4.5 mph - -  
11:00 PM 37 °F 31 °F 71% 30.22 in - WSW 4.5 mph - -